NORTHEAST SUFFOLK  -  Winter Weather Advisory Winter Weather Advisory        NORTHERN NASSAU  -  Winter Weather Advisory Winter Weather Advisory        NORTHWEST SUFFOLK  -  Winter Weather Advisory Winter Weather Advisory        SOUTHEAST SUFFOLK  -  Winter Weather Advisory Winter Weather Advisory        SOUTHERN NASSAU  -  Winter Weather Advisory Winter Weather Advisory        SOUTHWEST SUFFOLK  -  Winter Weather Advisory Winter Weather Advisory      

Active alerts

Northern Nassau
  Details for Northern Nassau Winter Weather Advisory
Southern Nassau
  Details for Southern Nassau Winter Weather Advisory
Northwest Suffolk
  Details for Northwest Suffolk Winter Weather Advisory
Southwest Suffolk
  Details for Southwest Suffolk Winter Weather Advisory
Northeast Suffolk
  Details for Northeast Suffolk Winter Weather Advisory
Southeast Suffolk
  Details for Southeast Suffolk Winter Weather Advisory


WXM80 ListenWXM80 Stop

You find our weather info also at:

UK Metoffice

WeatherCloud

Weather Underground

Northeastern Weather Network

AWEKAS

Citizen Weather Observer Program (CWOP)

HAMweather, WeatherForYou, PWS Weather


Weather Underground History page Text

Daily Summary for December 23, 2016 Units:  English    Metric   Both
« Previous Day
Next Day »
Daily Weekly Monthly Yearly Custom
  High: Low: Average:
Temperature: 45.6 °F 32.7 °F 39.8 °F
Dew Point: 31.9 °F 27.5 °F 29.7 °F
Humidity: 83 % 53 % 68 %
Wind Speed: 9.6 mph 0.0 mph 2.3 mph
Wind Gust: 29.0 mph - -
Wind:- - WSW
Pressure: 30.40 in 30.16 in -
Precipitation: 0.00 in    
Historical Graphs
 
 
Tabular Data for December 23, 2016
Time Temperature Dew Point Pressure Wind Wind Speed Wind Gust Humidity Rainfall Rate (Hourly)
00:04 39.3 °F 31.7 °F 30.16 in NW 1.0 mph 29.0 mph 74 % 0.00 in
00:09 39.3 °F 31.7 °F 30.16 in NW 4.6 mph 29.0 mph 74 % 0.00 in
00:14 39.2 °F 31.9 °F 30.16 in WNW 4.9 mph 29.0 mph 75 % 0.00 in
00:19 39.2 °F 31.9 °F 30.16 in WNW 5.0 mph 9.0 mph 75 % 0.00 in
00:21 39.2 °F 31.9 °F 30.16 in WNW 4.5 mph 29.0 mph 75 % 0.00 in
00:26 39.2 °F 31.9 °F 30.17 in WNW 4.7 mph 29.0 mph 75 % 0.00 in
00:31 39.2 °F 31.6 °F 30.17 in West 4.0 mph 29.0 mph 74 % 0.00 in
00:36 39.2 °F 31.6 °F 30.18 in NW 3.8 mph 29.0 mph 74 % 0.00 in
00:41 39.1 °F 31.5 °F 30.18 in WNW 5.0 mph 29.0 mph 74 % 0.00 in
00:46 39.1 °F 31.5 °F 30.18 in NW 3.3 mph 29.0 mph 74 % 0.00 in
00:51 39.1 °F 31.8 °F 30.18 in West 4.2 mph 29.0 mph 75 % 0.00 in
00:56 39.1 °F 31.5 °F 30.19 in NNW 5.7 mph 29.0 mph 74 % 0.00 in
01:01 39.0 °F 31.4 °F 30.18 in NW 4.1 mph 29.0 mph 74 % 0.00 in
01:06 39.1 °F 31.8 °F 30.19 in NNW 2.5 mph 29.0 mph 75 % 0.00 in
01:11 39.0 °F 31.4 °F 30.19 in NW 1.8 mph 29.0 mph 74 % 0.00 in
01:16 39.0 °F 31.7 °F 30.19 in NNW 5.2 mph 29.0 mph 75 % 0.00 in
01:21 39.0 °F 31.4 °F 30.20 in North 1.5 mph 29.0 mph 74 % 0.00 in
01:26 39.0 °F 31.4 °F 30.20 in NW 2.0 mph 29.0 mph 74 % 0.00 in
01:31 38.9 °F 31.3 °F 30.20 in West 1.9 mph 29.0 mph 74 % 0.00 in
01:36 38.9 °F 31.0 °F 30.20 in NNW 2.5 mph 29.0 mph 73 % 0.00 in
01:41 38.9 °F 31.0 °F 30.20 in WNW 3.7 mph 29.0 mph 73 % 0.00 in
01:46 38.8 °F 30.9 °F 30.20 in WNW 3.2 mph 29.0 mph 73 % 0.00 in
01:52 38.8 °F 30.9 °F 30.21 in WNW 1.6 mph 29.0 mph 73 % 0.00 in
01:57 38.8 °F 30.9 °F 30.21 in WNW 1.1 mph 29.0 mph 73 % 0.00 in
02:02 38.7 °F 30.8 °F 30.21 in NW 2.7 mph 29.0 mph 73 % 0.00 in
02:07 38.6 °F 30.7 °F 30.21 in WNW 1.1 mph 29.0 mph 73 % 0.00 in
02:12 38.6 °F 30.7 °F 30.22 in West 1.2 mph 29.0 mph 73 % 0.00 in
02:17 38.5 °F 30.3 °F 30.22 in WNW 0.8 mph 29.0 mph 72 % 0.00 in
02:22 38.4 °F 30.5 °F 30.22 in WNW 1.1 mph 29.0 mph 73 % 0.00 in
02:27 38.3 °F 30.4 °F 30.22 in WNW 0.4 mph 29.0 mph 73 % 0.00 in
02:32 38.2 °F 30.6 °F 30.23 in NW 2.6 mph 29.0 mph 74 % 0.00 in
02:37 38.1 °F 30.5 °F 30.23 in WNW 1.9 mph 29.0 mph 74 % 0.00 in
02:42 38.0 °F 30.4 °F 30.23 in NW 0.8 mph 29.0 mph 74 % 0.00 in
02:47 38.0 °F 30.4 °F 30.23 in WNW 0.4 mph 29.0 mph 74 % 0.00 in
02:52 38.0 °F 30.4 °F 30.23 in WNW 2.9 mph 29.0 mph 74 % 0.00 in
02:57 38.0 °F 30.4 °F 30.23 in NW 2.3 mph 29.0 mph 74 % 0.00 in
03:03 38.0 °F 30.4 °F 30.23 in WNW 0.9 mph 29.0 mph 74 % 0.00 in
03:08 38.0 °F 30.4 °F 30.23 in WNW 0.8 mph 29.0 mph 74 % 0.00 in
03:13 38.0 °F 30.4 °F 30.23 in WNW 4.7 mph 29.0 mph 74 % 0.00 in
03:18 38.1 °F 30.9 °F 30.24 in WNW 3.8 mph 29.0 mph 75 % 0.00 in
03:23 38.1 °F 30.9 °F 30.24 in NW 0.9 mph 29.0 mph 75 % 0.00 in
03:28 38.1 °F 30.5 °F 30.24 in NW 2.1 mph 29.0 mph 74 % 0.00 in
03:33 38.1 °F 30.5 °F 30.24 in WNW 2.3 mph 29.0 mph 74 % 0.00 in
03:38 38.1 °F 30.5 °F 30.25 in WNW 1.8 mph 29.0 mph 74 % 0.00 in
03:40 38.1 °F 30.5 °F 30.25 in WNW 0.7 mph 29.0 mph 74 % 0.00 in
03:45 38.0 °F 30.4 °F 30.25 in WNW 0.7 mph 29.0 mph 74 % 0.00 in
03:50 38.0 °F 30.4 °F 30.25 in WNW 1.1 mph 29.0 mph 74 % 0.00 in
03:56 37.9 °F 30.4 °F 30.24 in WNW 0.3 mph 29.0 mph 74 % 0.00 in
04:01 37.9 °F 30.4 °F 30.24 in WNW 0.5 mph 29.0 mph 74 % 0.00 in
04:06 37.7 °F 30.2 °F 30.25 in WNW 0.7 mph 29.0 mph 74 % 0.00 in
04:11 37.6 °F 30.1 °F 30.25 in West 0.1 mph 29.0 mph 74 % 0.00 in
04:16 37.5 °F 30.0 °F 30.25 in WSW 1.2 mph 29.0 mph 74 % 0.00 in
04:21 37.3 °F 29.8 °F 30.25 in West 0.9 mph 29.0 mph 74 % 0.00 in
04:26 37.1 °F 29.6 °F 30.26 in SSW 1.4 mph 29.0 mph 74 % 0.00 in
04:31 36.9 °F 29.7 °F 30.26 in SSW 0.8 mph 29.0 mph 75 % 0.00 in
04:36 36.6 °F 29.4 °F 30.26 in SSW 0.5 mph 29.0 mph 75 % 0.00 in
04:41 36.4 °F 29.6 °F 30.27 in Calm   29.0 mph 76 % 0.00 in
04:46 36.1 °F 29.6 °F 30.27 in West 0.6 mph 29.0 mph 77 % 0.00 in
04:51 36.0 °F 29.8 °F 30.27 in West 0.9 mph 29.0 mph 78 % 0.00 in
04:56 35.7 °F 29.5 °F 30.27 in SW 1.7 mph 29.0 mph 78 % 0.00 in
05:01 35.5 °F 29.3 °F 30.28 in SW 1.3 mph 29.0 mph 78 % 0.00 in
05:06 35.3 °F 29.1 °F 30.27 in SW 1.3 mph 29.0 mph 78 % 0.00 in
05:11 35.0 °F 28.8 °F 30.27 in SW 1.5 mph 29.0 mph 78 % 0.00 in
05:16 34.8 °F 28.6 °F 30.28 in SW 0.3 mph 29.0 mph 78 % 0.00 in
05:21 34.7 °F 28.9 °F 30.28 in SW 0.5 mph 29.0 mph 79 % 0.00 in
05:26 34.4 °F 28.6 °F 30.28 in SW 0.3 mph 29.0 mph 79 % 0.00 in
05:31 34.2 °F 28.4 °F 30.28 in SW 0.2 mph 29.0 mph 79 % 0.00 in
05:36 33.9 °F 28.1 °F 30.29 in SW 0.2 mph 29.0 mph 79 % 0.00 in
05:41 33.6 °F 27.8 °F 30.29 in SW 1.0 mph 29.0 mph 79 % 0.00 in
05:47 33.4 °F 27.9 °F 30.30 in SW 1.4 mph 29.0 mph 80 % 0.00 in
05:52 33.2 °F 27.7 °F 30.30 in SW 1.6 mph 29.0 mph 80 % 0.00 in
05:57 33.0 °F 27.8 °F 30.30 in SW 2.1 mph 29.0 mph 81 % 0.00 in
06:02 33.0 °F 27.8 °F 30.30 in SSW 1.3 mph 29.0 mph 81 % 0.00 in
06:07 32.9 °F 27.7 °F 30.30 in SSW 2.0 mph 29.0 mph 81 % 0.00 in
06:12 32.8 °F 27.6 °F 30.31 in SSW 1.3 mph 29.0 mph 81 % 0.00 in
06:17 32.8 °F 27.6 °F 30.31 in SSW 1.7 mph 29.0 mph 81 % 0.00 in
06:22 32.7 °F 27.5 °F 30.31 in SW 2.3 mph 29.0 mph 81 % 0.00 in
06:27 32.7 °F 27.5 °F 30.31 in SW 2.2 mph 29.0 mph 81 % 0.00 in
06:32 32.7 °F 27.5 °F 30.32 in SW 1.6 mph 29.0 mph 81 % 0.00 in
06:37 32.7 °F 27.5 °F 30.33 in WSW 1.5 mph 29.0 mph 81 % 0.00 in
06:42 32.8 °F 27.6 °F 30.33 in WSW 1.5 mph 29.0 mph 81 % 0.00 in
06:48 32.8 °F 27.6 °F 30.34 in SSW 2.6 mph 29.0 mph 81 % 0.00 in
06:53 32.9 °F 27.7 °F 30.34 in SSW 2.2 mph 29.0 mph 81 % 0.00 in
06:58 32.9 °F 28.0 °F 30.34 in WSW 2.7 mph 29.0 mph 82 % 0.00 in
07:03 33.0 °F 28.1 °F 30.34 in SW 3.6 mph 29.0 mph 82 % 0.00 in
07:08 33.2 °F 28.6 °F 30.34 in SW 2.3 mph 29.0 mph 83 % 0.00 in
07:13 33.3 °F 28.7 °F 30.34 in SW 1.8 mph 29.0 mph 83 % 0.00 in
07:18 33.4 °F 28.5 °F 30.35 in SW 2.0 mph 29.0 mph 82 % 0.00 in
07:28 33.7 °F 29.1 °F 30.34 in WSW 1.2 mph 29.0 mph 83 % 0.00 in
07:33 33.8 °F 29.2 °F 30.35 in WSW 0.8 mph 29.0 mph 83 % 0.00 in
07:38 33.8 °F 29.2 °F 30.35 in Calm   29.0 mph 83 % 0.00 in
07:43 33.9 °F 29.0 °F 30.35 in WSW 0.6 mph 29.0 mph 82 % 0.00 in
07:48 33.9 °F 29.0 °F 30.35 in WSW 1.7 mph 29.0 mph 82 % 0.00 in
07:53 33.9 °F 29.0 °F 30.36 in SW 2.2 mph 29.0 mph 82 % 0.00 in
07:58 34.0 °F 29.1 °F 30.36 in SW 2.1 mph 29.0 mph 82 % 0.00 in
08:00 34.0 °F 29.1 °F 30.36 in SSW 2.2 mph 29.0 mph 82 % 0.00 in
08:05 34.1 °F 29.2 °F 30.36 in SW 2.1 mph 29.0 mph 82 % 0.00 in
08:10 34.2 °F 29.3 °F 30.36 in SSW 1.3 mph 29.0 mph 82 % 0.00 in
08:15 34.4 °F 29.5 °F 30.36 in SSW 2.3 mph 29.0 mph 82 % 0.00 in
08:20 34.5 °F 29.6 °F 30.37 in SSW 2.3 mph 29.0 mph 82 % 0.00 in
08:25 34.8 °F 29.6 °F 30.36 in SW 2.2 mph 29.0 mph 81 % 0.00 in
08:30 35.0 °F 29.8 °F 30.37 in WSW 1.6 mph 29.0 mph 81 % 0.00 in
08:35 35.4 °F 29.8 °F 30.37 in WSW 0.7 mph 29.0 mph 80 % 0.00 in
08:40 35.8 °F 29.9 °F 30.37 in WSW 4.8 mph 29.0 mph 79 % 0.00 in
08:46 36.2 °F 30.0 °F 30.37 in SW 4.8 mph 29.0 mph 78 % 0.00 in
08:51 36.9 °F 30.0 °F 30.38 in WNW 4.6 mph 29.0 mph 76 % 0.00 in
08:56 37.4 °F 29.9 °F 30.38 in SW 3.7 mph 29.0 mph 74 % 0.00 in
09:01 37.7 °F 30.2 °F 30.38 in WSW 2.1 mph 29.0 mph 74 % 0.00 in
09:06 38.1 °F 29.9 °F 30.38 in WSW 4.1 mph 29.0 mph 72 % 0.00 in
09:11 38.5 °F 29.9 °F 30.38 in WSW 2.3 mph 29.0 mph 71 % 0.00 in
09:16 38.8 °F 30.2 °F 30.38 in WSW 4.7 mph 29.0 mph 71 % 0.00 in
09:17 38.9 °F 30.3 °F 30.39 in SSW 1.5 mph 29.0 mph 71 % 0.00 in
09:22 39.2 °F 30.2 °F 30.39 in West 1.9 mph 29.0 mph 70 % 0.00 in
09:27 39.5 °F 30.2 °F 30.39 in WSW 3.0 mph 29.0 mph 69 % 0.00 in
09:32 39.7 °F 30.4 °F 30.39 in WSW 3.0 mph 29.0 mph 69 % 0.00 in
09:37 39.9 °F 29.8 °F 30.39 in WNW 5.9 mph 29.0 mph 67 % 0.00 in
09:42 40.2 °F 29.7 °F 30.39 in SW 5.8 mph 29.0 mph 66 % 0.00 in
09:47 40.4 °F 29.6 °F 30.39 in WNW 4.3 mph 29.0 mph 65 % 0.00 in
09:52 40.6 °F 29.4 °F 30.39 in WNW 3.6 mph 29.0 mph 64 % 0.00 in
09:57 40.8 °F 29.6 °F 30.39 in WSW 6.2 mph 29.0 mph 64 % 0.00 in
10:02 41.0 °F 29.4 °F 30.39 in SW 2.4 mph 29.0 mph 63 % 0.00 in
10:07 41.2 °F 29.5 °F 30.39 in NW 4.3 mph 29.0 mph 63 % 0.00 in
10:12 41.4 °F 29.3 °F 30.40 in WSW 2.8 mph 29.0 mph 62 % 0.00 in
10:17 41.7 °F 29.6 °F 30.39 in WNW 4.9 mph 29.0 mph 62 % 0.00 in
10:23 41.9 °F 29.8 °F 30.39 in WNW 2.7 mph 29.0 mph 62 % 0.00 in
10:28 42.1 °F 30.4 °F 30.39 in WSW 4.0 mph 29.0 mph 63 % 0.00 in
10:33 42.3 °F 30.6 °F 30.40 in SW 5.3 mph 29.0 mph 63 % 0.00 in
10:38 42.3 °F 30.2 °F 30.39 in SW 4.6 mph 29.0 mph 62 % 0.00 in
10:43 42.2 °F 30.1 °F 30.39 in West 4.5 mph 29.0 mph 62 % 0.00 in
10:48 42.3 °F 29.8 °F 30.39 in WNW 3.7 mph 29.0 mph 61 % 0.00 in
10:53 42.4 °F 29.9 °F 30.39 in WSW 4.8 mph 29.0 mph 61 % 0.00 in
10:58 42.5 °F 30.0 °F 30.39 in SSW 4.6 mph 29.0 mph 61 % 0.00 in
11:03 42.5 °F 29.6 °F 30.39 in West 4.7 mph 29.0 mph 60 % 0.00 in
11:08 42.5 °F 29.2 °F 30.39 in WSW 6.6 mph 29.0 mph 59 % 0.00 in
11:18 42.6 °F 28.8 °F 30.38 in WSW 9.6 mph 29.0 mph 58 % 0.00 in
11:23 42.6 °F 29.3 °F 30.38 in WNW 3.2 mph 29.0 mph 59 % 0.00 in
11:28 42.7 °F 29.4 °F 30.38 in WSW 0.8 mph 29.0 mph 59 % 0.00 in
11:33 42.9 °F 29.1 °F 30.37 in WSW 5.1 mph 29.0 mph 58 % 0.00 in
11:38 42.9 °F 29.1 °F 30.37 in SW 5.4 mph 29.0 mph 58 % 0.00 in
11:44 43.0 °F 29.2 °F 30.37 in WSW 8.2 mph 29.0 mph 58 % 0.00 in
11:49 43.1 °F 29.3 °F 30.37 in West 6.4 mph 29.0 mph 58 % 0.00 in
11:54 43.3 °F 29.5 °F 30.37 in WSW 3.5 mph 29.0 mph 58 % 0.00 in
11:59 43.4 °F 29.6 °F 30.37 in West 4.6 mph 29.0 mph 58 % 0.00 in
12:04 43.6 °F 29.8 °F 30.37 in WSW 4.0 mph 29.0 mph 58 % 0.00 in
12:09 43.8 °F 30.0 °F 30.36 in WSW 2.3 mph 29.0 mph 58 % 0.00 in
12:14 44.0 °F 29.7 °F 30.36 in WSW 2.5 mph 29.0 mph 57 % 0.00 in
12:19 44.1 °F 29.8 °F 30.36 in WSW 3.9 mph 29.0 mph 57 % 0.00 in
12:24 44.4 °F 30.1 °F 30.36 in West 5.0 mph 29.0 mph 57 % 0.00 in
12:29 44.6 °F 30.3 °F 30.36 in West 3.0 mph 7.0 mph 57 % 0.00 in
12:34 44.8 °F 29.6 °F 30.36 in West 3.0 mph 8.0 mph 55 % 0.00 in
12:39 44.9 °F 29.2 °F 30.36 in SW 3.7 mph 29.0 mph 54 % 0.00 in
12:44 45.0 °F 29.8 °F 30.36 in WSW 5.0 mph 9.0 mph 55 % 0.00 in
12:49 45.1 °F 30.3 °F 30.36 in West 5.0 mph 13.0 mph 56 % 0.00 in
12:54 45.1 °F 29.9 °F 30.36 in WSW 6.0 mph 14.0 mph 55 % 0.00 in
12:59 45.0 °F 29.8 °F 30.36 in WSW 3.5 mph 29.0 mph 55 % 0.00 in
13:04 45.0 °F 29.3 °F 30.35 in WSW 1.0 mph 16.0 mph 54 % 0.00 in
13:09 45.0 °F 29.8 °F 30.35 in WSW 5.0 mph 8.0 mph 55 % 0.00 in
13:14 45.0 °F 29.8 °F 30.35 in WSW 3.0 mph 12.0 mph 55 % 0.00 in
13:19 45.0 °F 29.4 °F 30.35 in WSW 2.0 mph 6.0 mph 54 % 0.00 in
13:24 45.1 °F 29.9 °F 30.35 in WSW 3.0 mph 8.0 mph 55 % 0.00 in
13:29 45.1 °F 29.9 °F 30.35 in WSW 6.0 mph 12.0 mph 55 % 0.00 in
13:34 45.1 °F 29.9 °F 30.35 in WSW 2.0 mph 7.0 mph 55 % 0.00 in
13:39 45.1 °F 29.9 °F 30.35 in WSW 3.6 mph 29.0 mph 55 % 0.00 in
13:44 45.0 °F 29.3 °F 30.35 in WSW 3.0 mph 8.0 mph 54 % 0.00 in
13:49 45.0 °F 29.3 °F 30.35 in WSW 7.0 mph 12.0 mph 54 % 0.00 in
13:54 45.1 °F 29.9 °F 30.35 in SW 1.0 mph 7.0 mph 55 % 0.00 in
13:59 45.3 °F 30.1 °F 30.35 in WSW 6.3 mph 29.0 mph 55 % 0.00 in
14:04 45.4 °F 29.7 °F 30.35 in SW 3.9 mph 29.0 mph 54 % 0.00 in
14:09 45.5 °F 29.8 °F 30.35 in WSW 1.7 mph 29.0 mph 54 % 0.00 in
14:15 45.6 °F 29.4 °F 30.35 in WSW 6.3 mph 29.0 mph 53 % 0.00 in
14:20 45.6 °F 29.4 °F 30.35 in SW 3.0 mph 29.0 mph 53 % 0.00 in
14:25 45.5 °F 29.3 °F 30.36 in WSW 5.5 mph 29.0 mph 53 % 0.00 in
14:30 45.4 °F 29.3 °F 30.36 in West 5.9 mph 29.0 mph 53 % 0.00 in
14:35 45.3 °F 29.6 °F 30.36 in WNW 5.8 mph 29.0 mph 54 % 0.00 in
14:40 45.2 °F 29.1 °F 30.36 in WNW 2.5 mph 29.0 mph 53 % 0.00 in
14:45 45.1 °F 29.0 °F 30.36 in WSW 2.7 mph 29.0 mph 53 % 0.00 in
14:50 45.0 °F 29.3 °F 30.36 in West 2.7 mph 29.0 mph 54 % 0.00 in
14:55 44.9 °F 29.2 °F 30.36 in SW 3.1 mph 29.0 mph 54 % 0.00 in
15:00 44.8 °F 29.6 °F 30.36 in WSW 3.0 mph 29.0 mph 55 % 0.00 in
15:05 44.7 °F 29.5 °F 30.36 in WSW 2.4 mph 29.0 mph 55 % 0.00 in
15:10 44.7 °F 29.1 °F 30.36 in West 4.8 mph 29.0 mph 54 % 0.00 in
15:15 44.6 °F 29.4 °F 30.37 in WSW 2.7 mph 29.0 mph 55 % 0.00 in
15:20 44.6 °F 29.4 °F 30.37 in SSW 0.5 mph 29.0 mph 55 % 0.00 in
15:25 44.6 °F 29.4 °F 30.37 in WSW 3.3 mph 29.0 mph 55 % 0.00 in
15:31 44.5 °F 29.3 °F 30.37 in SSW 1.0 mph 29.0 mph 55 % 0.00 in
15:36 44.4 °F 29.2 °F 30.36 in SW 2.9 mph 29.0 mph 55 % 0.00 in
15:41 44.3 °F 29.1 °F 30.36 in SW 2.5 mph 29.0 mph 55 % 0.00 in
15:46 44.2 °F 29.0 °F 30.37 in WSW 1.7 mph 29.0 mph 55 % 0.00 in
15:51 44.1 °F 28.9 °F 30.36 in SW 0.4 mph 29.0 mph 55 % 0.00 in
15:56 44.1 °F 28.9 °F 30.37 in WSW 0.8 mph 29.0 mph 55 % 0.00 in
16:01 44.0 °F 28.9 °F 30.36 in WSW 1.4 mph 29.0 mph 55 % 0.00 in
16:06 43.9 °F 28.8 °F 30.36 in SSW 0.3 mph 29.0 mph 55 % 0.00 in
16:11 43.7 °F 28.6 °F 30.36 in WSW 2.2 mph 29.0 mph 55 % 0.00 in
16:16 43.6 °F 28.9 °F 30.36 in WSW 0.8 mph 29.0 mph 56 % 0.00 in
16:21 43.5 °F 28.8 °F 30.36 in SW 1.0 mph 29.0 mph 56 % 0.00 in
16:26 43.2 °F 28.5 °F 30.36 in SW 2.1 mph 29.0 mph 56 % 0.00 in
16:31 43.1 °F 28.9 °F 30.37 in Calm   29.0 mph 57 % 0.00 in
16:37 42.9 °F 28.7 °F 30.36 in SW 0.5 mph 29.0 mph 57 % 0.00 in
16:42 42.7 °F 28.9 °F 30.36 in Calm   29.0 mph 58 % 0.00 in
16:47 42.5 °F 28.8 °F 30.36 in Calm   29.0 mph 58 % 0.00 in
16:52 42.2 °F 28.5 °F 30.36 in Calm   29.0 mph 58 % 0.00 in
16:57 42.0 °F 28.7 °F 30.37 in Calm   29.0 mph 59 % 0.00 in
17:02 41.8 °F 28.5 °F 30.37 in Calm   29.0 mph 59 % 0.00 in
17:07 41.6 °F 28.7 °F 30.37 in Calm   29.0 mph 60 % 0.00 in
17:12 41.3 °F 28.9 °F 30.37 in SW 0.5 mph 29.0 mph 61 % 0.00 in
17:17 41.0 °F 28.6 °F 30.37 in Calm   29.0 mph 61 % 0.00 in
17:22 40.8 °F 28.4 °F 30.38 in Calm   29.0 mph 61 % 0.00 in
17:27 40.6 °F 28.2 °F 30.38 in SW 1.7 mph 29.0 mph 61 % 0.00 in
17:32 40.4 °F 28.4 °F 30.38 in WSW 1.0 mph 29.0 mph 62 % 0.00 in
17:37 40.3 °F 28.3 °F 30.38 in SW 1.3 mph 29.0 mph 62 % 0.00 in
17:42 40.2 °F 28.6 °F 30.38 in Calm   29.0 mph 63 % 0.00 in
17:47 40.2 °F 29.0 °F 30.38 in SSW 0.6 mph 29.0 mph 64 % 0.00 in
17:52 40.2 °F 29.0 °F 30.38 in SSW 0.2 mph 29.0 mph 64 % 0.00 in
17:58 40.1 °F 28.9 °F 30.38 in Calm   29.0 mph 64 % 0.00 in
18:03 40.1 °F 28.9 °F 30.38 in SSW 0.2 mph 29.0 mph 64 % 0.00 in
18:08 40.0 °F 28.8 °F 30.38 in South 0.9 mph 29.0 mph 64 % 0.00 in
18:13 40.0 °F 28.8 °F 30.38 in South 0.3 mph 29.0 mph 64 % 0.00 in
18:18 39.9 °F 28.7 °F 30.39 in South 0.8 mph 29.0 mph 64 % 0.00 in
18:23 39.8 °F 28.6 °F 30.38 in Calm   29.0 mph 64 % 0.00 in
18:28 39.7 °F 28.9 °F 30.38 in South 0.3 mph 29.0 mph 65 % 0.00 in
18:33 39.6 °F 28.8 °F 30.38 in South 0.2 mph 29.0 mph 65 % 0.00 in
18:38 39.6 °F 28.8 °F 30.38 in Calm   29.0 mph 65 % 0.00 in
18:43 39.5 °F 29.1 °F 30.38 in South 1.2 mph 29.0 mph 66 % 0.00 in
18:48 39.5 °F 29.1 °F 30.38 in Calm   29.0 mph 66 % 0.00 in
18:53 39.4 °F 29.0 °F 30.38 in SW 1.4 mph 29.0 mph 66 % 0.00 in
18:58 39.3 °F 29.3 °F 30.37 in SSW 2.0 mph 29.0 mph 67 % 0.00 in
19:08 39.2 °F 29.2 °F 30.38 in SW 1.3 mph 29.0 mph 67 % 0.00 in
19:13 39.2 °F 29.2 °F 30.38 in SW 1.8 mph 29.0 mph 67 % 0.00 in
19:19 39.1 °F 29.1 °F 30.37 in SSW 2.5 mph 29.0 mph 67 % 0.00 in
19:24 39.1 °F 29.1 °F 30.37 in SSW 1.4 mph 29.0 mph 67 % 0.00 in
19:29 39.1 °F 29.1 °F 30.38 in SSW 2.1 mph 29.0 mph 67 % 0.00 in
19:34 39.1 °F 29.1 °F 30.38 in SW 1.4 mph 29.0 mph 67 % 0.00 in
19:39 39.1 °F 29.1 °F 30.38 in SW 2.2 mph 29.0 mph 67 % 0.00 in
19:44 39.1 °F 29.1 °F 30.38 in SSW 2.4 mph 29.0 mph 67 % 0.00 in
19:49 39.1 °F 29.1 °F 30.38 in SSW 1.9 mph 29.0 mph 67 % 0.00 in
19:54 39.1 °F 29.1 °F 30.38 in SW 1.2 mph 29.0 mph 67 % 0.00 in
19:59 39.1 °F 29.1 °F 30.39 in SSW 1.2 mph 29.0 mph 67 % 0.00 in
20:04 39.2 °F 29.2 °F 30.38 in SW 2.5 mph 29.0 mph 67 % 0.00 in
20:09 39.3 °F 29.6 °F 30.38 in SSW 3.0 mph 7.0 mph 68 % 0.00 in
20:14 39.4 °F 29.7 °F 30.38 in SSW 2.0 mph 4.0 mph 68 % 0.00 in
20:19 39.5 °F 29.8 °F 30.37 in SSW 3.0 mph 5.0 mph 68 % 0.00 in
20:24 39.6 °F 29.9 °F 30.37 in SW 1.9 mph 29.0 mph 68 % 0.00 in
20:29 39.7 °F 30.0 °F 30.37 in SW 1.0 mph 2.0 mph 68 % 0.00 in
20:34 39.7 °F 30.0 °F 30.37 in SW 0.9 mph 29.0 mph 68 % 0.00 in
20:39 39.8 °F 30.1 °F 30.37 in SSW 1.0 mph 3.0 mph 68 % 0.00 in
20:44 39.9 °F 30.2 °F 30.37 in SSW 2.0 mph 6.0 mph 68 % 0.00 in
20:49 40.0 °F 30.3 °F 30.38 in SW 5.0 mph 10.0 mph 68 % 0.00 in
20:54 40.1 °F 30.4 °F 30.38 in SSW 3.0 mph 8.0 mph 68 % 0.00 in
20:59 40.2 °F 30.1 °F 30.37 in SW 1.4 mph 29.0 mph 67 % 0.00 in
21:04 40.3 °F 30.2 °F 30.37 in SW 2.4 mph 29.0 mph 67 % 0.00 in
21:09 40.4 °F 30.3 °F 30.36 in SW 1.5 mph 29.0 mph 67 % 0.00 in
21:15 40.4 °F 30.3 °F 30.37 in SW 2.2 mph 29.0 mph 67 % 0.00 in
21:20 40.4 °F 30.3 °F 30.37 in WSW 2.0 mph 29.0 mph 67 % 0.00 in
21:25 40.4 °F 30.3 °F 30.37 in SSW 3.4 mph 29.0 mph 67 % 0.00 in
21:30 40.5 °F 30.4 °F 30.37 in SSW 4.6 mph 29.0 mph 67 % 0.00 in
21:35 40.5 °F 30.4 °F 30.38 in SW 4.4 mph 29.0 mph 67 % 0.00 in
21:40 40.6 °F 30.5 °F 30.38 in WSW 2.1 mph 29.0 mph 67 % 0.00 in
21:45 40.6 °F 30.5 °F 30.36 in WSW 1.9 mph 29.0 mph 67 % 0.00 in
21:50 40.6 °F 30.1 °F 30.35 in WSW 0.2 mph 29.0 mph 66 % 0.00 in
21:55 40.6 °F 30.1 °F 30.37 in SSW 2.7 mph 29.0 mph 66 % 0.00 in
22:00 40.6 °F 30.1 °F 30.36 in SW 4.7 mph 29.0 mph 66 % 0.00 in
22:05 40.7 °F 30.2 °F 30.36 in SSW 2.9 mph 29.0 mph 66 % 0.00 in
22:10 40.7 °F 30.2 °F 30.36 in SSW 1.4 mph 29.0 mph 66 % 0.00 in
22:15 40.7 °F 30.2 °F 30.35 in South 2.7 mph 29.0 mph 66 % 0.00 in
22:20 40.6 °F 30.1 °F 30.35 in SW 2.0 mph 29.0 mph 66 % 0.00 in
22:25 40.6 °F 30.1 °F 30.35 in WSW 2.2 mph 29.0 mph 66 % 0.00 in
22:30 40.6 °F 30.1 °F 30.36 in WSW 3.4 mph 29.0 mph 66 % 0.00 in
22:35 40.6 °F 30.1 °F 30.35 in SW 1.2 mph 29.0 mph 66 % 0.00 in
22:41 40.5 °F 30.0 °F 30.35 in SSW 2.5 mph 29.0 mph 66 % 0.00 in
22:46 40.5 °F 30.0 °F 30.35 in WSW 3.5 mph 29.0 mph 66 % 0.00 in
22:51 40.5 °F 30.0 °F 30.35 in SSW 3.5 mph 29.0 mph 66 % 0.00 in
22:56 40.5 °F 30.4 °F 30.35 in SW 0.2 mph 29.0 mph 67 % 0.00 in
23:01 40.5 °F 30.4 °F 30.34 in Calm   29.0 mph 67 % 0.00 in
23:06 40.5 °F 30.4 °F 30.34 in Calm   29.0 mph 67 % 0.00 in
23:11 40.4 °F 30.3 °F 30.34 in SW 1.6 mph 29.0 mph 67 % 0.00 in
23:16 40.4 °F 30.7 °F 30.35 in SW 3.0 mph 29.0 mph 68 % 0.00 in
23:21 40.2 °F 30.5 °F 30.34 in SW 2.4 mph 29.0 mph 68 % 0.00 in
23:26 40.2 °F 30.5 °F 30.34 in Calm   29.0 mph 68 % 0.00 in
23:31 40.1 °F 30.4 °F 30.34 in Calm   29.0 mph 68 % 0.00 in
23:36 40.1 °F 30.4 °F 30.34 in Calm   29.0 mph 68 % 0.00 in
23:41 40.0 °F 30.3 °F 30.34 in SW 1.1 mph 29.0 mph 68 % 0.00 in
23:46 40.0 °F 30.3 °F 30.33 in SSW 1.5 mph 29.0 mph 68 % 0.00 in
23:51 39.8 °F 30.1 °F 30.33 in SSW 2.0 mph 29.0 mph 68 % 0.00 in
23:56 39.8 °F 30.1 °F 30.33 in SW 1.8 mph 29.0 mph 68 % 0.00 in
Crab Meadow Weather
Compliments of Weather Underground - 3 mb

Script developed by  Jim McMurry - jmcmurry@mwt.net Adapted for the template by  Wim van der Kuil - Leuven-Template.eu

Weather Terms: Freeze Warning - Widespread temperatures at or below 32°F during the growing season. A freeze may occur with or without frost. A hard freeze occurs with temperatures below 28°F. Growing season is based on the average date of first and last freeze at O'Hare. It begins April 17 and ends October 27.